Погода в Калинине

Россия / Пермский край     57°19′42″N   56°19′57″E
темп.,
°C
ветер,
м/с
пор.,
м/с
влажн.,
%
обл.,
%
осадки,
мм/ч
давл.,
гПа
погр.,
м
6 мая, чт
чт623:00+6з511745 0.3 1003894
02:00+4зюз512809 0.0 1005773
05:00+3з5128116 0.0 1007974
08:00+4з71276100 0.1 10091024
11:00+7зсз7115183 0.1 10111746
14:00+10з6104152 0.0 10121989
17:00+11з694118 0.0 10131893
20:00+10з48542 0.0 1015477
7 мая, пт
пт723:00+5зюз22720 0.0 101723
02:00+4зюз23855 0.0 101850
05:00+5юз2387100 0.0 101960
08:00+10ююз41176100 0.0 1019364
11:00+16юз585714 0.0 10181143
14:00+17юз5847100 0.0 10182230
17:00+16ююз4854100 0.0 10181430
20:00+14ююз41063100 0.0 1017549
8 мая, сб
сб823:00+12ююз31171100 0.0 1018378
02:00+12ююз2975100 0.1 1018268
05:00+10юз2280100 0.1 101823
08:00+13зюз1371100 0.0 1019199
11:00+16ююз2351100 0.1 1019994
14:00+18з2244100 0.1 10181928
17:00+17юв0145100 0.1 10181114
20:00+15юв1160100 0.0 101810
9 мая, вс
вс923:00+13ююв1165100 0.0 101811
02:00+11вюв117151 0.0 101810
05:00+10юв117524 0.0 101825
08:00+13вюв23645 0.0 1019211
11:00+18юв34485 0.0 10181102
14:00+20юв343643 0.0 10172480
17:00+18ююв2348100 0.0 101773
20:00+16вюв115859 0.0 101813
10 мая, пн
пн1023:00+14юв116176 0.0 101810
02:00+12ююв226725 0.0 101922
05:00+11ю227274 0.0 102010
08:00+15ююз1361100 0.0 1021178
11:00+18з3451100 0.0 1022846
14:00+15зсз3573100 0.1 1023284
17:00+14зсз3779100 0.1 1024464
20:00+11с3784100 0.1 1026376